Regional Weather Roundup
Issued by NWS

Home | Current Version | Previous Version | Text Only | Print | Product List | Glossary Off
Versions: 1 2 3 4 5 6 7 8 9 10 11 12 13 14 15 16 17 18 19 20 21 22 23 24 25 26 27 28 29 30 31 32 33 34 35 36 37 38 39 40 41 42 43 44 45 46 47 48 49 50

000
ASUS43 KMKX 220721
RWRWI

WISCONSIN REGIONAL WEATHER ROUNDUP
NATIONAL WEATHER SERVICE MILWAUKEE/SULLIVAN WI
100 AM CST WED FEB 22 2017

NOTE: "FAIR" INDICATES FEW OR NO CLOUDS BELOW 12,000 FEET WITH NO
SIGNIFICANT WEATHER AND/OR OBSTRUCTIONS TO VISIBILITY.

WIZ001-002-006>008-014>016-023>028-220800-
NORTHWEST WISCONSIN

CITY           SKY/WX    TMP DP  RH WIND       PRES   REMARKS
SUPERIOR ARPT  CLOUDY    32  32  99 CALM      29.67S
ASHLAND        PTCLDY    41  36  82 S8        29.67S
HAYWARD        CLOUDY    40  37  89 CALM      29.68S
SIREN          PTCLDY    37  36  98 CALM      29.68S
CUMBERLAND     PTCLDY    36  34  93 CALM      29.68S FOG
RICE LAKE      PTCLDY    38  36  94 CALM      29.70S
CHETEK         PTCLDY    38  37  95 E9        29.69R WCI  32
LADYSMITH      MOCLDY    39  34  84 CALM      29.71S
EAU CLAIRE     PTCLDY    42  38  85 S3        29.68F
MENOMONIE      MOCLDY    40  37  86 CALM      29.69R
NEW RICHMOND   CLOUDY    42  41  99 SW3       29.69R
OSCEOLA        FOG       37  37 100 CALM      29.71R VSB 3/4
$$

WIZ003>005-009-010-017-018-220800-
NORTH CENTRAL WISCONSIN

CITY           SKY/WX    TMP DP  RH WIND       PRES   REMARKS
MANITOWISH WTR DRIZZLE   43  36  75 S3        29.68F
ARBOR VITAE    LGT RAIN  44  35  69 CALM        N/A
WOODRUFF       LGT RAIN  44  35  69 CALM        N/A
RHINELANDER    PTCLDY    47  34  60 SW9       29.71S
EAGLE RIVER    CLOUDY    46  31  56 SW3       29.70S
LAND O LAKES   CLOUDY    44  33  63 S3        29.71S
PHILLIPS       MOCLDY    41  35  78 S3        29.68S
TOMAHAWK       PTCLDY    43  32  65 CALM      29.71S
MEDFORD        CLEAR     43  35  73 S6        29.70S
MERRILL        NOT AVBL
$$

WIZ029-030-035-036-043>047-220800-
CENTRAL WISCONSIN

CITY           SKY/WX    TMP DP  RH WIND       PRES   REMARKS
WAUSAU         CLEAR     45  34  65 SW9       29.71F
MOSINEE        CLEAR     41  34  75 S8        29.73F
MARSHFIELD     CLEAR     44  35  70 SW5       29.71F
STEVENS POINT  CLEAR     41  33  74 S3        29.74F
WAUPACA        CLOUDY    46  35  65 S3        29.74F
WAUTOMA        CLEAR     40  35  83 S3        29.76F
WISC RAPIDS    CLEAR     45  36  70 SW6       29.74F
CAMP DOUGLAS   PTCLDY    52  38  59 S15G21    29.72F
$$

WIZ011>013-019>022-031-037>040-048>050-220800-
NORTHEAST WISCONSIN

CITY           SKY/WX    TMP DP  RH WIND       PRES   REMARKS
ANTIGO         CLEAR     42  33  72 SW9       29.73S
SHAWANO        PTCLDY    49  37  61 CALM      29.74F
OCONTO         CLOUDY    41  35  79 CALM      29.74F
STURGEON BAY   CLOUDY    47  40  76 S8        29.75
GREEN BAY      CLOUDY    47  38  71 S5        29.76F
MANITOWOC      CLOUDY    39  36  89 E3        29.78F FOG
APPLETON       CLOUDY    45  34  65 S8        29.74F
CLINTONVILLE   CLOUDY    43  34  70 CALM      29.74F
OSHKOSH        CLOUDY    49  39  68 SW12      29.76F
$$

WIZ032>034-041-042-053>061-220800-
SOUTHWEST WISCONSIN

CITY           SKY/WX    TMP DP  RH WIND       PRES   REMARKS
LA CROSSE      CLEAR     50  39  66 S13       29.72F
SPARTA         CLEAR     43  36  76 CALM      29.74S
VIROQUA        CLEAR     45  37  73 SW7       29.74F
BOSCOBEL       CLEAR     37  34  89 CALM      29.78F
PRAIRIE DU CHI CLEAR     39  34  80 CALM      29.77F
PLATTEVILLE    CLEAR     44  41  89 S8        29.80F
$$

WIZ056-057-062-063-064-067-068-220800-
SOUTH CENTRAL WISCONSIN

CITY           SKY/WX    TMP DP  RH WIND       PRES   REMARKS
REEDSBURG      CLEAR     49  39  67 SW8       29.75F
BARABOO/DELLS  CLEAR     49  37  62 SW10      29.76F
LONE ROCK      CLEAR     41  35  79 NE3       29.79F
MINERAL POINT  CLEAR     46  41  81 S8        29.80S
MADISON        PTCLDY    40  36  86 MISG      29.79F
MIDDLETON      PTCLDY    50  41  72 SW6       29.79S
WATERTOWN      CLEAR     44  39  83 S3        29.80S
MONROE         CLEAR     46  43  87 SW13      29.80F
JANESVILLE     CLEAR     46  45  93 S7        29.81S
$$

WIZ051-052-058>065-066-070>072-220800-
SOUTHEAST WISCONSIN

CITY           SKY/WX    TMP DP  RH WIND       PRES   REMARKS
MILWAUKEE      PTCLDY    43  38  82 CALM      29.81F
WAUKESHA       CLEAR     45  39  81 SW6       29.81F
MILWAUKEE/TIMM CLEAR     45  37  76 CALM      29.81S
RACINE         CLEAR     45  42  89 SW7       29.83F FOG
KENOSHA        CLEAR     47  45  93 SW7       29.82S FOG
FOND DU LAC    CLOUDY    51  37  58 SW10      29.77F
SHEBOYGAN      CLOUDY    45  39  79 SW7       29.78F
WEST BEND      CLEAR     41  39  93 CALM      29.80S
JUNEAU         CLEAR     45  38  77 S7        29.81S
$$

LSZ147-162-220800-
LAKE SUPERIOR

STATION/POSITION TIME  TEMP    WIND        PRES    WAVE
                       AIR SEA DIR/SP/G            HT/PER
                 (UTC) (F)     (DEG/KT/KT) (MB)    (FT/S)
DEVILS ISLAND    0700   36      50/  1/  2 1004.8F
PORT WING        0640   34     160/  4/  5 1005.1R
SAXON HARBOR     0630   41      CALM  /  6 1004.4F
$$

LMZ867-665-643>646-220800-
LAKE MICHIGAN

STATION/POSITION TIME  TEMP    WIND        PRES    WAVE
                       AIR SEA DIR/SP/G            HT/PER
                 (UTC) (F)     (DEG/KT/KT) (MB)    (FT/S)
CHAMBERS ISLAND  0640   45     170/  4/ 10 1007.1F
NORTHPORT PIER   0640   45      CALM  /  8 1007.8F
SISTER BAY       0635   47     180/ 13/ 15   N/A
ALGOMA LAKESHORE 0555          220/  8/ 10   N/A
KEWAUNEE LAKESHO 0654   38     170/  4/  6 1007.7F
SHEBOYGAN LAKESH 0700   43     180/  8/  8 1008.6F
PORT WASHINGTON  0630   40      CALM  /  4 1010.2F
MILWAUKEE LAKESH 0700   46     170/  5/  5   N/A
KENOSHA   LAKESH 0700   51     210/  5/  7 1010.2
$$

TC  - TEMPERATURE IN CELSIUS
VSB - VISIBILITY IN STATUTE MILES
WCI - WIND CHILL INDEX
HX  - HEAT INDEX




USA.gov is the U.S. government's official web portal to all federal, state and local government web resources and services.